EW7356 Weather Reports


Display with metric or nautical units.
time (UTC)temp
F
wind
direction
speed
MPH
gust
MPH
rain 1hr
in
rain 24hr
in
rain mn
in
humidity
%
barometer
mb
20260508174029 52 333 6.0 15.0 0.00 0.00 0.00 43 1007.8
20260508173528 52 252 5.0 15.0 0.00 0.00 0.00 46 1007.8
20260508173039 51 275 7.0 15.0 0.00 0.00 0.00 42 1007.8
20260508172532 51 352 5.0 14.0 0.00 0.00 0.00 47 1007.9
20260508172027 50 210 5.0 14.0 0.00 0.00 0.00 44 1007.9
20260508171542 49 255 6.0 15.0 0.00 0.00 0.00 44 1008.0
20260508171027 49 238 5.0 15.0 0.00 0.00 0.00 43 1008.0
20260508170526 49 259 3.0 15.0 0.00 0.00 0.00 45 1008.0
20260508170042 49 261 4.0 15.0 0.00 0.00 0.00 43 1008.0
20260508165528 49 250 5.0 15.0 0.00 0.00 0.00 44 1007.9
20260508165026 49 5 5.0 14.0 0.00 0.00 0.00 44 1007.9
20260508164545 49 269 7.0 14.0 0.00 0.00 0.00 42 1007.8
20260508164028 49 341 6.0 14.0 0.00 0.00 0.00 43 1007.9
20260508163528 49 288 5.0 16.0 0.00 0.00 0.00 43 1007.8
20260508163035 48 267 4.0 16.0 0.00 0.00 0.00 44 1007.8
20260508162527 48 239 8.0 16.0 0.00 0.00 0.00 42 1007.8
20260508162029 49 316 5.0 15.0 0.00 0.00 0.00 46 1007.8
20260508161539 49 268 6.0 17.0 0.00 0.00 0.00 41 1007.6
20260508161029 49 297 9.0 17.0 0.00 0.00 0.00 41 1007.7
20260508160526 50 269 8.0 17.0 0.00 0.00 0.00 42 1007.5
20260508160041 50 338 5.0 13.0 0.00 0.00 0.00 40 1007.5
20260508155530 50 218 5.0 17.0 0.00 0.00 0.00 44 1007.4
20260508155029 50 275 8.0 17.0 0.00 0.00 0.00 39 1007.4
20260508154602 49 219 7.0 15.0 0.00 0.00 0.00 43 1007.3
20260508154033 49 277 7.0 15.0 0.00 0.00 0.00 42 1007.4
20260508153530 49 280 6.0 16.0 0.00 0.00 0.00 39 1007.6
20260508153039 49 208 7.0 16.0 0.00 0.00 0.00 40 1007.4
20260508152531 48 250 7.0 14.0 0.00 0.00 0.00 40 1007.5
20260508152029 48 305 7.0 17.0 0.00 0.00 0.00 40 1007.5
20260508151543 49 236 8.0 17.0 0.00 0.00 0.00 38 1007.7
20260508151029 49 236 9.0 16.0 0.00 0.00 0.00 38 1007.5
20260508150531 50 360 8.0 19.0 0.00 0.00 0.00 39 1007.5
20260508150043 49 229 8.0 19.0 0.00 0.00 0.00 41 1007.6
20260508145532 49 260 8.0 18.0 0.00 0.00 0.00 40 1007.7
20260508145030 49 280 9.0 18.0 0.00 0.00 0.00 36 1007.5
20260508144546 49 300 8.0 21.0 0.00 0.00 0.00 37 1007.7
20260508144031 48 298 10.0 21.0 0.00 0.00 0.00 37 1007.7
20260508143529 48 225 7.0 17.0 0.00 0.00 0.00 40 1007.6
20260508143037 48 250 9.0 16.0 0.00 0.00 0.00 38 1007.7
20260508142530 48 295 7.0 16.0 0.00 0.00 0.00 43 1007.7
20260508142029 48 346 5.0 14.0 0.00 0.00 0.00 42 1007.8
20260508141535 48 263 7.0 20.0 0.00 0.00 0.00 42 1007.8
20260508141032 48 265 6.0 20.0 0.00 0.00 0.00 41 1007.9
20260508140530 47 246 7.0 16.0 0.00 0.00 0.00 41 1008.0
20260508140040 47 335 8.0 17.0 0.00 0.00 0.00 43 1008.0
20260508135529 47 276 7.0 17.0 0.00 0.00 0.00 46 1008.0
20260508135030 47 242 7.0 17.0 0.00 0.00 0.00 45 1008.1
20260508134556 46 205 5.0 14.0 0.00 0.00 0.00 53 1008.1
20260508134030 46 287 6.0 16.0 0.00 0.00 0.00 52 1008.1
20260508133531 45 254 4.0 16.0 0.00 0.00 0.00 52 1007.9
20260508133050 45 242 6.0 12.0 0.00 0.00 0.00 53 1008.0
20260508132530 44 261 3.0 10.0 0.00 0.00 0.00 53 1008.0
20260508132032 44 293 1.0 11.0 0.00 0.00 0.00 55 1008.1
20260508131535 44 313 5.0 12.0 0.00 0.00 0.00 54 1008.1
20260508131031 44 259 5.0 12.0 0.00 0.00 0.00 53 1008.1
20260508130531 45 226 6.0 12.0 0.00 0.00 0.00 52 1008.1
20260508130037 45 252 5.0 15.0 0.00 0.00 0.00 53 1008.0
20260508125531 44 350 6.0 15.0 0.00 0.00 0.00 55 1008.2
20260508125028 43 280 4.0 10.0 0.00 0.00 0.00 58 1008.0
20260508124538 43 284 3.0 11.0 0.00 0.00 0.00 59 1008.1
20260508124033 43 211 4.0 11.0 0.00 0.00 0.00 59 1008.0
20260508123531 43 267 5.0 11.0 0.00 0.00 0.00 59 1008.1
20260508123048 43 239 4.0 11.0 0.00 0.00 0.00 60 1008.1
20260508122530 43 215 2.0 13.0 0.00 0.00 0.00 62 1008.2
20260508122029 42 277 4.0 13.0 0.00 0.00 0.00 64 1008.2
20260508121543 42 250 4.0 12.0 0.00 0.00 0.00 63 1008.2
20260508121032 42 275 4.0 12.0 0.00 0.00 0.00 63 1008.1
20260508120532 42 300 4.0 12.0 0.00 0.00 0.00 63 1008.1
20260508120039 41 257 5.0 12.0 0.00 0.00 0.00 63 1008.1
20260508115532 41 292 4.0 11.0 0.00 0.00 0.00 63 1008.2
20260508115027 41 257 3.0 9.0 0.00 0.00 0.00 65 1008.2
20260508114539 40 279 4.0 9.0 0.00 0.00 0.00 65 1008.0
20260508114030 40 234 3.0 8.0 0.00 0.00 0.00 66 1008.1
20260508113528 39 251 1.0 8.0 0.00 0.00 0.00 68 1008.0
20260508113042 39 276 3.0 8.0 0.00 0.00 0.00 67 1008.1
20260508112530 39 214 3.0 7.0 0.00 0.00 0.00 67 1008.1
20260508112030 39 278 2.0 6.0 0.00 0.00 0.00 69 1008.1
20260508111541 38 239 2.0 6.0 0.00 0.00 0.00 71 1008.0
20260508111029 38 286 2.0 6.0 0.00 0.00 0.00 71 1007.9
20260508110529 37 257 2.0 6.0 0.00 0.00 0.00 72 1007.8
20260508110034 37 0 1.0 3.0 0.00 0.00 0.00 73 1007.8
20260508105529 37 265 1.0 4.0 0.00 0.00 0.00 73 1007.8
20260508105032 36 280 1.0 4.0 0.00 0.00 0.00 74 1007.7
20260508104543 36 0 1.0 4.0 0.00 0.00 0.00 74 1007.6
20260508104028 36 269 1.0 4.0 0.00 0.00 0.00 74 1007.7
20260508103531 35 318 1.0 6.0 0.00 0.00 0.00 75 1007.7
20260508103039 35 295 1.0 6.0 0.00 0.00 0.00 76 1007.5
20260508102528 35 267 2.0 6.0 0.00 0.00 0.00 76 1007.4
20260508102031 35 273 3.0 7.0 0.00 0.00 0.00 77 1007.4
20260508101537 35 284 2.0 7.0 0.00 0.00 0.00 76 1007.3
20260508101031 35 261 3.0 7.0 0.00 0.00 0.00 76 1007.3
20260508100532 35 289 2.0 6.0 0.00 0.00 0.00 75 1007.2
20260508100056 35 294 2.0 6.0 0.00 0.00 0.00 75 1007.1
20260508095529 35 262 2.0 6.0 0.00 0.00 0.00 75 1007.2
20260508095032 35 269 2.0 6.0 0.00 0.00 0.00 75 1007.2
20260508094542 35 0 2.0 6.0 0.00 0.00 0.00 75 1007.0
20260508094029 35 298 1.0 6.0 0.00 0.00 0.00 74 1007.0
20260508093531 35 254 1.0 4.0 0.00 0.00 0.00 74 1007.0
20260508093041 35 290 1.0 4.0 0.00 0.00 0.00 74 1006.9
20260508092529 35 292 1.0 5.0 0.00 0.00 0.00 74 1006.9
20260508092029 35 297 1.0 5.0 0.00 0.00 0.00 75 1006.8
20260508091542 35 288 1.0 4.0 0.00 0.00 0.00 75 1006.8
20260508091031 35 258 2.0 4.0 0.00 0.00 0.00 75 1006.8
20260508090531 35 258 2.0 8.0 0.00 0.00 0.00 76 1006.8
20260508090108 35 292 2.0 8.0 0.00 0.00 0.00 76 1006.8
20260508085529 35 278 2.0 4.0 0.00 0.00 0.00 76 1006.9
20260508085029 35 277 2.0 4.0 0.00 0.00 0.00 76 1006.9
20260508084544 35 275 2.0 4.0 0.00 0.00 0.00 76 1006.8
20260508084030 35 292 1.0 4.0 0.00 0.00 0.00 75 1006.8
20260508083533 35 317 1.0 4.0 0.00 0.00 0.00 75 1006.9
20260508083041 35 309 1.0 4.0 0.00 0.00 0.00 75 1006.8
20260508082529 35 274 1.0 4.0 0.00 0.00 0.00 75 1006.8
20260508082033 35 280 1.0 4.0 0.00 0.00 0.00 76 1006.7
20260508081551 35 277 1.0 4.0 0.00 0.00 0.00 76 1006.7
20260508081031 35 271 1.0 5.0 0.00 0.00 0.00 76 1006.5
20260508080532 35 277 1.0 5.0 0.00 0.00 0.00 76 1006.5
20260508080036 35 243 2.0 4.0 0.00 0.00 0.00 76 1006.4
20260508075531 35 292 1.0 4.0 0.00 0.00 0.00 76 1006.3
20260508075031 35 275 1.0 3.0 0.00 0.00 0.00 75 1006.2
20260508074543 35 276 1.0 6.0 0.00 0.00 0.00 75 1006.4
20260508074030 35 298 1.0 6.0 0.00 0.00 0.00 75 1006.3
20260508073530 35 259 2.0 6.0 0.00 0.00 0.00 76 1006.4
20260508073105 35 279 2.0 4.0 0.00 0.00 0.00 76 1006.3
20260508072529 35 308 1.0 3.0 0.00 0.00 0.00 77 1006.4
20260508072032 35 285 0.0 2.0 0.00 0.00 0.00 77 1006.3
20260508071540 35 0 1.0 3.0 0.00 0.00 0.00 78 1006.2
20260508071031 35 271 0.0 3.0 0.00 0.00 0.00 78 1006.4
20260508070531 35 270 1.0 4.0 0.00 0.00 0.00 78 1006.5
20260508070046 35 266 0.0 4.0 0.00 0.00 0.00 77 1006.4
20260508065531 35 279 1.0 4.0 0.00 0.00 0.00 77 1006.5
20260508065033 35 0 1.0 3.0 0.00 0.00 0.00 77 1006.4
20260508064541 35 274 0.0 4.0 0.00 0.00 0.00 77 1006.5
20260508064032 35 280 1.0 4.0 0.00 0.00 0.00 78 1006.4
20260508063531 35 273 1.0 4.0 0.00 0.00 0.00 78 1006.5
20260508063039 35 0 1.0 3.0 0.00 0.00 0.00 79 1006.4
20260508062528 35 265 1.0 3.0 0.00 0.00 0.00 79 1006.4
20260508062030 36 269 1.0 3.0 0.00 0.00 0.00 77 1006.4
20260508061543 36 288 0.0 1.0 0.00 0.00 0.00 76 1006.3
20260508061029 37 0 0.0 2.0 0.00 0.00 0.00 74 1006.3
20260508060536 37 0 0.0 2.0 0.00 0.00 0.00 74 1006.2
20260508060053 37 288 0.0 2.0 0.00 0.00 0.00 74 1006.2
20260508055531 37 288 0.0 2.0 0.00 0.00 0.00 73 1006.5
20260508055031 36 0 0.0 3.0 0.00 0.00 0.00 74 1006.7
20260508054541 36 286 0.0 3.0 0.00 0.00 0.00 73 1006.8
20260508054030 36 282 1.0 3.0 0.00 0.00 0.00 74 1006.8
20260508053530 36 286 0.0 3.0 0.00 0.00 0.00 74 1006.9
20260508053043 35 297 0.0 3.0 0.00 0.00 0.00 75 1006.9
20260508052534 35 0 0.0 0.0 0.00 0.00 0.00 77 1006.9
20260508052030 35 0 0.0 0.0 0.00 0.00 0.00 77 1007.0
20260508051556 36 0 0.0 0.0 0.00 0.00 0.00 76 1007.1
20260508051031 36 0 0.0 0.0 0.00 0.00 0.00 76 1007.1
20260508050531 36 0 0.0 0.0 0.00 0.00 0.00 75 1007.1
20260508050039 36 0 0.0 0.0 0.00 0.00 0.00 73 1007.2
20260508045530 36 0 0.0 0.0 0.00 0.00 0.00 73 1007.1
20260508045030 37 0 0.0 0.0 0.00 0.00 0.00 73 1007.1
20260508044538 37 0 0.0 0.0 0.00 0.00 0.00 74 1007.2
20260508044030 37 0 0.0 0.0 0.00 0.00 0.00 74 1007.3
20260508043531 38 0 0.0 0.0 0.00 0.00 0.00 72 1007.3
20260508043041 38 0 0.0 1.0 0.00 0.00 0.00 71 1007.2
20260508042531 38 0 0.0 2.0 0.00 0.00 0.00 70 1007.3
20260508042030 38 283 0.0 2.0 0.00 0.00 0.00 69 1007.2
20260508041541 38 0 0.0 3.0 0.00 0.00 0.00 69 1007.3
20260508041030 38 0 0.0 3.0 0.00 0.00 0.00 70 1007.3
20260508040530 38 279 1.0 3.0 0.00 0.00 0.00 69 1007.3
20260508040050 38 284 1.0 3.0 0.00 0.00 0.00 70 1007.3
20260508035532 38 320 1.0 2.0 0.00 0.01 0.00 69 1007.3
20260508035031 38 324 0.0 2.0 0.00 0.01 0.00 70 1007.3
20260508034548 38 324 0.0 2.0 0.00 0.01 0.00 70 1007.2
20260508034032 38 0 0.0 2.0 0.00 0.01 0.00 68 1007.3
20260508033533 39 0 0.0 2.0 0.00 0.01 0.00 67 1007.2
20260508033051 39 0 0.0 1.0 0.00 0.01 0.00 66 1007.2
20260508032531 39 0 0.0 1.0 0.00 0.01 0.00 65 1007.3
20260508032032 39 0 0.0 1.0 0.00 0.01 0.00 65 1007.2
20260508031557 40 0 0.0 2.0 0.00 0.01 0.00 64 1007.2
20260508031030 40 0 0.0 2.0 0.00 0.01 0.00 64 1007.2
20260508030530 40 0 0.0 0.0 0.00 0.01 0.00 61 1007.2
20260508030040 41 0 0.0 0.0 0.00 0.01 0.00 60 1007.2
20260508025530 41 0 0.0 0.0 0.00 0.04 0.00 59 1007.3
20260508025030 41 0 0.0 0.0 0.00 0.04 0.00 58 1007.3
20260508024559 41 0 0.0 1.0 0.00 0.04 0.00 57 1007.3
20260508024030 42 0 0.0 1.0 0.00 0.04 0.00 55 1007.4
20260508023530 42 0 0.0 1.0 0.00 0.04 0.00 55 1007.3
20260508023037 42 0 0.0 1.0 0.00 0.04 0.00 53 1007.4
20260508022528 43 0 0.0 2.0 0.00 0.04 0.00 53 1007.4
20260508022031 43 0 0.0 3.0 0.00 0.04 0.00 53 1007.4
20260508021547 43 0 0.0 4.0 0.00 0.04 0.00 52 1007.3
20260508021030 43 320 0.0 4.0 0.00 0.04 0.00 53 1007.2
20260508020530 43 318 1.0 4.0 0.00 0.04 0.00 52 1007.0
20260508020049 44 293 1.0 6.0 0.00 0.04 0.00 52 1007.0
20260508015530 44 309 1.0 6.0 0.00 0.08 0.00 53 1007.0
20260508015030 44 286 2.0 8.0 0.00 0.08 0.00 52 1006.8
20260508014548 44 329 1.0 8.0 0.00 0.08 0.00 52 1006.8
20260508014031 44 325 2.0 8.0 0.00 0.08 0.00 51 1006.8
20260508013532 45 312 1.0 6.0 0.00 0.08 0.00 51 1006.6
20260508013039 45 340 1.0 5.0 0.00 0.08 0.00 51 1006.7
20260508012530 45 335 2.0 5.0 0.00 0.08 0.00 50 1006.7
20260508012030 46 0 1.0 7.0 0.00 0.08 0.00 50 1006.7
20260508011535 46 0 2.0 9.0 0.00 0.08 0.00 48 1006.7
20260508011031 46 344 3.0 9.0 0.00 0.08 0.00 48 1006.6
20260508010531 46 318 3.0 9.0 0.00 0.08 0.00 47 1006.5
20260508010051 46 360 3.0 9.0 0.00 0.08 0.00 47 1006.4
20260508005529 47 303 2.0 9.0 0.00 0.09 0.00 47 1006.3
20260508005031 47 310 1.0 9.0 0.00 0.09 0.00 47 1006.2
20260508004548 47 292 2.0 9.0 0.00 0.09 0.00 46 1006.1
20260508004032 47 325 1.0 8.0 0.00 0.09 0.00 45 1006.2
20260508003530 48 296 3.0 11.0 0.00 0.09 0.00 45 1006.0
20260508003047 48 313 2.0 11.0 0.00 0.09 0.00 45 1005.9
20260508002530 48 346 3.0 7.0 0.00 0.09 0.00 44 1005.9
20260508002030 48 266 2.0 8.0 0.00 0.09 0.00 43 1005.9
20260508001544 48 327 2.0 10.0 0.00 0.09 0.00 44 1005.8
20260508001030 49 306 3.0 10.0 0.00 0.09 0.00 42 1005.8
20260508000530 49 321 3.0 10.0 0.00 0.09 0.00 42 1005.7
20260508000035 49 289 4.0 10.0 0.00 0.09 0.00 41 1005.6
20260507235531 49 328 3.0 10.0 0.00 0.30 0.00 41 1005.8
20260507235030 49 337 1.0 8.0 0.00 0.30 0.00 42 1005.5
20260507234542 50 304 3.0 8.0 0.00 0.30 0.00 41 1005.6
20260507234030 50 87 2.0 12.0 0.00 0.30 0.00 41 1005.4
20260507233530 50 344 0.0 12.0 0.00 0.30 0.00 42 1005.4
20260507233042 50 281 2.0 9.0 0.00 0.30 0.00 39 1005.4
20260507232530 50 327 1.0 11.0 0.00 0.30 0.00 40 1005.2
20260507232031 50 331 3.0 11.0 0.00 0.30 0.00 40 1005.1
20260507231543 50 292 3.0 11.0 0.00 0.30 0.00 40 1005.3
20260507231030 51 338 3.0 13.0 0.00 0.30 0.00 39 1005.1
20260507230529 51 261 5.0 17.0 0.00 0.30 0.00 40 1005.2
20260507230050 51 250 7.0 17.0 0.00 0.30 0.00 40 1005.2
20260507225530 52 286 5.0 14.0 0.00 0.32 0.00 40 1005.0
20260507225031 52 252 5.0 14.0 0.00 0.32 0.00 40 1005.1
20260507224537 53 234 6.0 16.0 0.00 0.32 0.00 38 1005.1
20260507224030 53 319 7.0 19.0 0.00 0.32 0.00 38 1005.0
20260507223530 53 257 8.0 19.0 0.00 0.32 0.00 38 1005.0
20260507223043 54 286 5.0 12.0 0.00 0.32 0.00 38 1004.8
20260507222526 54 325 4.0 10.0 0.00 0.32 0.00 38 1004.9
20260507222031 54 286 4.0 10.0 0.00 0.32 0.00 38 1004.8
20260507221543 53 331 3.0 12.0 0.00 0.32 0.00 41 1004.8
20260507221032 52 277 5.0 16.0 0.00 0.32 0.00 39 1004.7
20260507220533 52 269 4.0 18.0 0.00 0.32 0.00 42 1004.7
20260507220042 52 234 8.0 18.0 0.00 0.32 0.00 39 1004.8
20260507215530 53 240 5.0 14.0 0.00 0.32 0.00 38 1004.8
20260507215034 53 319 5.0 10.0 0.00 0.32 0.00 40 1004.9
20260507214538 52 294 3.0 14.0 0.00 0.32 0.00 42 1005.0
20260507214030 52 261 5.0 15.0 0.00 0.32 0.00 42 1004.9
20260507213530 52 282 6.0 15.0 0.00 0.32 0.00 40 1004.9
20260507213039 52 248 5.0 12.0 0.00 0.32 0.00 40 1004.9
20260507212530 53 324 4.0 11.0 0.00 0.32 0.00 40 1004.9
20260507212031 53 292 3.0 13.0 0.00 0.32 0.00 41 1004.8
20260507211543 53 254 5.0 13.0 0.00 0.32 0.00 39 1004.9
20260507211030 53 159 6.0 13.0 0.00 0.32 0.00 40 1004.9
20260507210533 53 246 4.0 14.0 0.00 0.32 0.00 39 1004.8
20260507210053 53 270 6.0 14.0 0.00 0.32 0.00 40 1004.9
20260507205529 52 334 6.0 16.0 0.00 0.32 0.00 40 1004.9
20260507205028 53 296 6.0 16.0 0.00 0.32 0.00 39 1004.8
20260507204538 54 273 8.0 15.0 0.00 0.32 0.00 37 1004.7
20260507204028 54 328 4.0 15.0 0.00 0.32 0.00 39 1004.8
20260507203532 53 309 7.0 15.0 0.00 0.32 0.00 38 1004.7
20260507203107 54 276 6.0 15.0 0.00 0.32 0.00 38 1004.7
20260507202535 55 291 5.0 18.0 0.00 0.32 0.00 40 1004.6
20260507202029 54 325 8.0 22.0 0.00 0.32 0.00 40 1004.7
20260507201535 54 248 9.0 22.0 0.00 0.32 0.00 39 1004.7
20260507201029 53 269 4.0 21.0 0.00 0.32 0.00 43 1004.7
20260507200531 53 234 10.0 21.0 0.00 0.32 0.00 40 1004.6
20260507200041 53 246 8.0 16.0 0.00 0.32 0.00 41 1004.8
20260507195536 53 268 8.0 15.0 0.00 0.38 0.00 41 1004.7
20260507195031 53 274 5.0 15.0 0.00 0.38 0.00 41 1004.8
20260507194538 53 229 6.0 15.0 0.00 0.38 0.00 42 1004.9
20260507194028 54 276 7.0 15.0 0.00 0.38 0.00 39 1004.8
20260507193529 53 214 5.0 14.0 0.00 0.38 0.00 42 1004.9
20260507193041 52 301 5.0 11.0 0.00 0.38 0.00 42 1004.9
20260507192529 52 257 3.0 18.0 0.00 0.38 0.00 41 1005.0
20260507192029 53 304 5.0 18.0 0.00 0.38 0.00 41 1005.1
20260507191542 53 281 7.0 18.0 0.00 0.38 0.00 40 1005.1
20260507191030 53 274 8.0 17.0 0.00 0.38 0.00 39 1005.2
20260507190528 54 244 6.0 17.0 0.00 0.38 0.00 42 1005.2
20260507190034 53 249 6.0 17.0 0.00 0.38 0.00 42 1005.3
20260507185528 54 352 7.0 17.0 0.00 0.45 0.00 40 1005.4
20260507185030 54 271 7.0 16.0 0.00 0.45 0.00 45 1005.2
20260507184542 54 234 7.0 15.0 0.00 0.45 0.00 43 1005.3
20260507184028 54 240 5.0 17.0 0.00 0.45 0.00 44 1005.3
20260507183527 54 225 8.0 23.0 0.00 0.45 0.00 42 1005.4
20260507183041 53 247 6.0 23.0 0.00 0.45 0.00 42 1005.5
20260507182528 53 262 11.0 22.0 0.00 0.45 0.00 41 1005.4
20260507182027 53 211 10.0 18.0 0.00 0.45 0.00 42 1005.4
20260507181542 53 5 9.0 15.0 0.00 0.45 0.00 41 1005.4
20260507181029 54 308 5.0 12.0 0.00 0.45 0.00 41 1005.6
20260507180528 53 288 2.0 14.0 0.00 0.45 0.00 42 1005.6
20260507180041 54 301 7.0 15.0 0.00 0.45 0.00 43 1005.6
20260507175533 54 263 7.0 16.0 0.00 0.57 0.00 42 1005.5
20260507175027 54 0 6.0 18.0 0.00 0.57 0.00 44 1005.5
20260507174541 53 269 8.0 18.0 0.00 0.57 0.00 43 1005.6